星链-32873 (STARLINK-32873)

导读

STARLINK-32873是由美国于2025年2月1日08:00发射的星链卫星,星链是SpaceX打造的低轨卫星互联网星座项目,旨在为全球用户提供高速低延迟的宽带网络服务,该卫星入轨后将助力星链星座扩展覆盖范围,进一步提升星座的服务能力与全球网络覆盖的稳定性。

基本信息
目录编号:
62857
目录名称:
STARLINK-32873
国际标识:
2025-022D
轨道中心:
EARTH
卫星名称:
星链-32873
卫星全名:
星链-32873 (STARLINK-32873)
卫星状态:
在轨 (已飞行498 天)
发射日期:
2025-02-01 UTC
国别 :
美国 (US)
星等 :
--
轨道信息
数据来源 国际轨道数据
星历时间: 2026-06-14T03:58:04+0800
11小时前
查看轨道信息
半长轴: 6840.903km
偏心率: 0.0001136
轨道倾角: 53.160°
近地点辐角 81.092°
升交点赤经 42.790°
平近点角 279.021°
近地点: 461.988km
远地点: 463.544km
周期: 93.849分钟
每日圈数: 15.34379
详细信息
固有亮度:
5
最大亮度:
2.5
卫星平台:
Starlink V1.0
覆盖范围:
全球
运营商:
太空探索技术公司
运营商所在国:
美国
制造商(研发单位):
太空探索技术公司
制造商所在国:
美国
使用方式:
暂无
卫星简介
Starlink 计划是 SpaceX 推出的全球卫星互联网项目,通过发射低轨道卫星,为全球尤其是偏远地区提供高速、低延迟的互联网服务。自 2019 年起,Starlink 已部署数千颗卫星,旨在缩小全球数字鸿沟,推动互联网普及。该项目还为军事、航空等行业提供通信支持,带来广泛经济效益。
2D轨道图
3D轨道图
轨道高度分析图
轨道倾角分析图
轨道综合分析图
查看轨道综合分析图